Location: Unspecified
(47.1121°N, 116.3927°W)
Time: 20:09:09
(UTC-07:00)

Okean 3 - Visible Passes

Search period start: 23 September 2017 00:00
Search period end: 03 October 2017 00:00
Orbit: 578 x 601 km, 82.5° (Epoch: 23 September)

Date Brightness Start Highest point End Pass type
(mag) Time Alt. Az. Time Alt. Az. Time Alt. Az.
23 Sep 6.0 03:02:10 19° ENE 03:02:10 19° ENE 03:04:45 10° NE visible
23 Sep 3.9 04:38:45 43° WNW 04:38:45 43° WNW 04:42:47 10° N visible
24 Sep 5.7 03:10:50 24° ENE 03:10:50 24° ENE 03:13:25 10° NNE visible
24 Sep 4.5 04:47:24 30° WNW 04:47:24 30° WNW 04:50:48 10° N visible
25 Sep 5.4 03:19:27 28° NE 03:19:27 28° NE 03:21:54 10° NNE visible
25 Sep 5.0 04:56:01 21° NW 04:56:01 21° NW 04:58:40 10° NNW visible
26 Sep 5.3 03:28:01 29° NNE 03:28:01 29° NNE 03:30:16 10° NNE visible
26 Sep 5.4 05:04:36 15° NW 05:04:36 15° NW 05:06:21 10° NNW visible
27 Sep 5.3 03:36:34 27° NNE 03:36:34 27° NNE 03:38:33 10° N visible
27 Sep 5.7 05:13:08 11° NW 05:13:08 11° NW 05:13:29 10° NW visible
28 Sep 5.5 03:45:05 23° N 03:45:05 23° N 03:46:45 10° N visible
29 Sep 5.7 03:53:34 18° N 03:53:34 18° N 03:54:52 10° N visible
30 Sep 5.9 04:02:02 15° NNW 04:02:02 15° NNW 04:02:52 10° N visible
01 Oct 6.8 02:33:55 10° NNE 02:33:55 10° NNE 02:33:56 10° NNE visible
01 Oct 6.1 04:10:28 11° NNW 04:10:28 11° NNW 04:10:46 10° NNW visible
